Hourly Weather Russkaya Selitba

Today, 22 April, Thursday

Time Temperature Precipitation Wind Pressure Humidity
00:00 +2°C° 0.4 mm 7 mps 760 mmHg 93%
01:00 +2°C° 0.8 mm 7 mps 760 mmHg 94%
02:00 +2°C° 0.8 mm 6 mps 760 mmHg 94%
03:00 +2°C° 0 mm 6 mps 760 mmHg 94%
04:00 +2°C° 0.2 mm 6 mps 760 mmHg 92%
05:00 +3°C° 0.2 mm 6 mps 760 mmHg 91%
06:00 +3°C° 0.2 mm 6 mps 761 mmHg 89%
07:00 +3°C° 0 mm 5 mps 761 mmHg 86%
08:00 +5°C° 0 mm 5 mps 761 mmHg 82%
09:00 +5°C° 0 mm 5 mps 761 mmHg 79%
10:00 +6°C° 0 mm 5 mps 761 mmHg 73%
11:00 +7°C° 0 mm 6 mps 761 mmHg 67%
12:00 +8°C° 0 mm 6 mps 761 mmHg 62%
13:00 +8°C° 0 mm 6 mps 761 mmHg 61%
14:00 +8°C° 0 mm 6 mps 761 mmHg 61%
15:00 +9°C° 0 mm 6 mps 760 mmHg 61%
16:00 +8°C° 0 mm 6 mps 761 mmHg 63%
17:00 +7°C° 0 mm 5 mps 761 mmHg 66%
18:00 +7°C° 0 mm 5 mps 761 mmHg 69%
19:00 +6°C° 0 mm 5 mps 761 mmHg 74%
20:00 +5°C° 0 mm 5 mps 761 mmHg 78%
21:00 +3°C° 0 mm 5 mps 761 mmHg 83%
22:00 +4°C° 0 mm 4 mps 761 mmHg 86%
23:00 +4°C° 0 mm 4 mps 761 mmHg 90%

Tomorrow, 23 April, Friday

Time Temperature Precipitation Wind Pressure Humidity
00:00 +3°C° 0 mm 4 mps 761 mmHg 93%
01:00 +3°C° 0 mm 3 mps 761 mmHg 94%
02:00 +3°C° 0 mm 3 mps 761 mmHg 94%
03:00 +4°C° 0 mm 2 mps 762 mmHg 95%
04:00 +4°C° 0 mm 2 mps 762 mmHg 94%
05:00 +4°C° 0 mm 2 mps 762 mmHg 93%
06:00 +5°C° 0 mm 2 mps 762 mmHg 92%
07:00 +5°C° 0 mm 3 mps 762 mmHg 85%
08:00 +8°C° 0 mm 3 mps 761 mmHg 78%
09:00 +8°C° 0 mm 4 mps 761 mmHg 71%
10:00 +11°C° 0 mm 4 mps 761 mmHg 67%
11:00 +12°C° 0 mm 4 mps 760 mmHg 63%
12:00 +13°C° 0 mm 4 mps 760 mmHg 59%
13:00 +13°C° 0 mm 4 mps 760 mmHg 57%
14:00 +14°C° 0 mm 4 mps 759 mmHg 56%
15:00 +14°C° 0 mm 4 mps 759 mmHg 54%
16:00 +13°C° 0 mm 4 mps 759 mmHg 57%
17:00 +13°C° 0 mm 3 mps 758 mmHg 60%
18:00 +12°C° 0 mm 3 mps 758 mmHg 63%
19:00 +12°C° 0 mm 2 mps 758 mmHg 66%
20:00 +10°C° 0 mm 2 mps 757 mmHg 70%
21:00 +9°C° 0 mm 2 mps 757 mmHg 73%
22:00 +9°C° 0 mm 3 mps 757 mmHg 78%
23:00 +8°C° 0 mm 3 mps 756 mmHg 83%

Day after tomorrow, 24 April, Saturday

Time Temperature Precipitation Wind Pressure Humidity
00:00 +7°C° 0 mm 4 mps 756 mmHg 88%
01:00 +6°C° 0.7 mm 4 mps 755 mmHg 89%
02:00 +7°C° 0.7 mm 3 mps 755 mmHg 90%
03:00 +7°C° 0.7 mm 3 mps 754 mmHg 91%
04:00 +7°C° 0.4 mm 2 mps 754 mmHg 92%
05:00 +7°C° 0.4 mm 2 mps 753 mmHg 92%
06:00 +7°C° 0.4 mm 2 mps 752 mmHg 93%
07:00 +7°C° 0.5 mm 2 mps 752 mmHg 93%
08:00 +7°C° 0.5 mm 2 mps 752 mmHg 92%
09:00 +7°C° 0.5 mm 2 mps 752 mmHg 92%
10:00 +7°C° 0.3 mm 2 mps 751 mmHg 91%
11:00 +8°C° 0.3 mm 1 mps 751 mmHg 90%
12:00 +8°C° 0.3 mm 1 mps 751 mmHg 89%
13:00 +8°C° 0.1 mm 2 mps 751 mmHg 88%
14:00 +8°C° 0.1 mm 2 mps 751 mmHg 87%
15:00 +8°C° 0.1 mm 2 mps 751 mmHg 86%
16:00 +8°C° 0 mm 2 mps 751 mmHg 86%
17:00 +8°C° 0 mm 2 mps 750 mmHg 85%
18:00 +8°C° 0 mm 2 mps 750 mmHg 85%
19:00 +8°C° 0 mm 2 mps 750 mmHg 87%
20:00 +7°C° 0 mm 3 mps 750 mmHg 89%
21:00 +7°C° 0 mm 3 mps 750 mmHg 91%
22:00 +7°C° 0.3 mm 3 mps 749 mmHg 92%
23:00 +6°C° 0.3 mm 4 mps 749 mmHg 92%

25 April, Sunday

Time Temperature Precipitation Wind Pressure Humidity
00:00 +7°C° 0.3 mm 4 mps 748 mmHg 93%
01:00 +6°C° 0.4 mm 4 mps 748 mmHg 91%
02:00 +6°C° 0.4 mm 5 mps 748 mmHg 89%
03:00 +6°C° 0.4 mm 5 mps 748 mmHg 88%
04:00 +6°C° 0 mm 5 mps 749 mmHg 86%
05:00 +5°C° 0 mm 4 mps 749 mmHg 85%
06:00 +5°C° 0 mm 4 mps 750 mmHg 84%
07:00 +5°C° 0.3 mm 4 mps 750 mmHg 86%
08:00 +5°C° 0.3 mm 5 mps 750 mmHg 87%
09:00 +5°C° 0.3 mm 5 mps 750 mmHg 89%
10:00 +5°C° 0.2 mm 6 mps 750 mmHg 80%
11:00 +6°C° 0.2 mm 7 mps 751 mmHg 71%
12:00 +7°C° 0.2 mm 8 mps 751 mmHg 62%
13:00 +8°C° 0.4 mm 7 mps 751 mmHg 62%
14:00 +8°C° 0.4 mm 7 mps 752 mmHg 61%
15:00 +8°C° 0.4 mm 7 mps 752 mmHg 60%
16:00 +8°C° 0.1 mm 7 mps 753 mmHg 63%
17:00 +7°C° 0.1 mm 6 mps 753 mmHg 66%
18:00 +7°C° 0.1 mm 6 mps 754 mmHg 68%
19:00 +6°C° 0 mm 5 mps 754 mmHg 72%
20:00 +5°C° 0 mm 4 mps 754 mmHg 77%
21:00 +4°C° 0 mm 4 mps 755 mmHg 81%
22:00 +3°C° 0 mm 4 mps 755 mmHg 81%
23:00 +3°C° 0 mm 3 mps 755 mmHg 81%

26 April, Monday

Time Temperature Precipitation Wind Pressure Humidity
00:00 +3°C° 0 mm 3 mps 756 mmHg 82%
01:00 +2°C° 0 mm 3 mps 756 mmHg 82%
02:00 +3°C° 0 mm 2 mps 756 mmHg 81%
03:00 +3°C° 0 mm 2 mps 756 mmHg 81%
04:00 +3°C° 0 mm 2 mps 757 mmHg 79%
05:00 +4°C° 0 mm 2 mps 757 mmHg 77%
06:00 +4°C° 0 mm 2 mps 757 mmHg 74%
07:00 +6°C° 0 mm 2 mps 757 mmHg 66%
08:00 +8°C° 0 mm 2 mps 757 mmHg 57%
09:00 +9°C° 0 mm 3 mps 757 mmHg 48%
10:00 +10°C° 0 mm 3 mps 756 mmHg 45%
11:00 +11°C° 0 mm 3 mps 756 mmHg 41%
12:00 +11°C° 0 mm 3 mps 756 mmHg 37%
13:00 +13°C° 0 mm 2 mps 756 mmHg 37%
14:00 +13°C° 0 mm 2 mps 755 mmHg 37%
15:00 +13°C° 0 mm 2 mps 755 mmHg 36%
16:00 +12°C° 0 mm 2 mps 754 mmHg 42%
17:00 +12°C° 0 mm 2 mps 754 mmHg 47%
18:00 +10°C° 0 mm 2 mps 753 mmHg 53%
19:00 +9°C° 0 mm 2 mps 753 mmHg 54%
20:00 +9°C° 0 mm 1 mps 753 mmHg 55%
21:00 +8°C° 0 mm 1 mps 753 mmHg 56%
22:00 +8°C° 0 mm 1 mps 752 mmHg 58%
23:00 +7°C° 0 mm 1 mps 752 mmHg 59%

27 April, Tuesday

Time Temperature Precipitation Wind Pressure Humidity
00:00 +7°C° 0 mm 1 mps 752 mmHg 61%
01:00 +6°C° 0 mm 1 mps 751 mmHg 64%
02:00 +6°C° 0 mm 1 mps 751 mmHg 67%
03:00 +6°C° 0 mm 1 mps 751 mmHg 70%
04:00 +6°C° 0 mm 1 mps 751 mmHg 70%
05:00 +7°C° 0 mm 1 mps 750 mmHg 71%
06:00 +6°C° 0 mm 2 mps 750 mmHg 71%
07:00 +8°C° 0 mm 3 mps 750 mmHg 65%
08:00 +8°C° 0 mm 4 mps 749 mmHg 58%
09:00 +10°C° 0 mm 5 mps 749 mmHg 52%
10:00 +10°C° 0 mm 6 mps 749 mmHg 51%
11:00 +11°C° 0 mm 6 mps 748 mmHg 50%
12:00 +11°C° 0 mm 7 mps 748 mmHg 49%
13:00 +10°C° 0.2 mm 7 mps 748 mmHg 53%
14:00 +9°C° 0.2 mm 7 mps 748 mmHg 58%
15:00 +8°C° 0.2 mm 7 mps 748 mmHg 63%
16:00 +8°C° 0 mm 6 mps 748 mmHg 62%
17:00 +8°C° 0 mm 5 mps 748 mmHg 61%
18:00 +7°C° 0 mm 4 mps 748 mmHg 61%
19:00 +7°C° 0.2 mm 4 mps 748 mmHg 65%
20:00 +6°C° 0.2 mm 4 mps 748 mmHg 69%
21:00 +5°C° 0.2 mm 4 mps 748 mmHg 73%
22:00 +5°C° 0.1 mm 4 mps 749 mmHg 74%
23:00 +3°C° 0.1 mm 5 mps 749 mmHg 76%
Show more